Regional Weather Roundup
Issued by NWS

Home | Current Version | Previous Version | Graphics & Text | Print | Product List | Glossary On
Versions: 1 2 3 4 5 6 7 8 9 10 11 12 13 14 15 16 17 18 19 20 21 22 23 24 25 26 27 28 29 30 31 32 33 34 35 36 37 38 39 40 41 42 43 44 45 46 47 48 49 50
000
ASUS45 KBOU 190707
RWRCO

WEATHER ROUNDUP FOR COLORADO
NATIONAL WEATHER SERVICE DENVER/BOULDER CO
1200 AM MST FRI DEC 19 2014

NOTE: "FAIR" INDICATES FEW OR NO CLOUDS BELOW 12000 FEET WITH NO
SIGNIFICANT WEATHER AND/OR OBSTRUCTIONS TO VISIBILITY.

COZ001>005-013-030-031-190800-
...NORTHWEST COLORADO...

CITY           SKY/WX    TMP DP  RH WIND       PRES   REMARKS
CRAIG          HAZE      24  19  81 CALM      30.18F VSB 1/4
HAYDEN         MOCLDY    16  12  86 CALM      30.17S
MEEKER         CLOUDY    20  17  88 CALM      30.19S
MOUNT WERNER   NOT AVBL
STEAMBOAT SPGS CLOUDY    17  15  93 CALM      30.16F
WALDEN         PTCLDY     1  -4  78 CALM      30.11F
$$

COZ006>008-011-190800-
...WEST CENTRAL VALLEYS...

CITY           SKY/WX    TMP DP  RH WIND       PRES   REMARKS
GRAND JUNCTION CLOUDY    32  30  92 SE6       30.20S WCI  26
MONTROSE       CLOUDY    32  30  92 S3        30.21S
EAGLE          CLOUDY    25  23  93 CALM      30.20S
RIFLE          LGT SNOW  32  30  92 CALM      30.20S FOG
DELTA          CLOUDY    32  30  91 CALM      30.22S
NUCLA          CLOUDY    32  30  93 CALM      30.24S
$$

COZ017>023-064>068-190800-
...SOUTHWEST COLORADO...

CITY           SKY/WX    TMP DP  RH WIND       PRES   REMARKS
DURANGO        CLEAR     24  21  88 CALM      30.15S
CORTEZ         CLEAR     22  20  92 NE6       30.20R WCI  14
PAGOSA SPRINGS CLOUDY    24  22  92 CALM      30.15S
TELLURIDE      MOCLDY    19  13  77 CALM      30.17F
WOLF CREEK PAS MOCLDY     9   9 100 MISG      30.09S
$$

COZ009-010-012-014-032>034-037-058>063-190800-
...CENTRAL COLORADO...

CITY           SKY/WX    TMP DP  RH WIND       PRES   REMARKS
ASPEN          LGT SNOW  24  23  96 CALM      30.14S FOG
BUENA VISTA    PTCLDY    19  11  70 NE3       30.12S
COPPER MTN     CLOUDY    14   9  79 W18       30.07F WCI  -3
BERTHOUD PASS  CLOUDY     5   1  85 MISG      30.05F
COTTONWOOD PAS PTCLDY    21  12  68 NW7       30.08F WCI  13
GUNNISON       PTCLDY    12   5  73 CALM      30.19S
KREMMLING      CLOUDY    14  12  92 CALM      30.19S
LEADVILLE      CLOUDY    10   6  84 VRB6      30.09F WCI   0
MONARCH PASS   CLOUDY    12   9  85 MISG      30.17F
SALIDA         PTCLDY    22  17  80 CALM      30.19S
SUNLIGHT       FLURRIES N/A N/A N/A W3        30.14S
WILKERSON PASS PTCLDY    14   7  73 NW8       30.08F WCI   3
$$

COZ069>075-190800-
...SAN LUIS VALLEY/SANGRE DE CRISTO MOUNTAINS...

CITY           SKY/WX    TMP DP  RH WIND       PRES   REMARKS
ALAMOSA        PTCLDY     9   6  88 CALM      30.13S
LA VETA PASS   PTCLDY    16  14  93 S5        30.08F WCI   9
SAGUACHE       PTCLDY    21  16  79 NW7       30.13F WCI  13
$$

COZ035-036-038>040-190800-
...NORTHERN COLORADO FRONT RANGE...

CITY           SKY/WX    TMP DP  RH WIND       PRES   REMARKS
DENVER INTL AP MOCLDY    29  25  85 W6        30.08S WCI  23
DMNS CITY PARK   N/A     27  24  88 SE2       30.08S
AURORA         MOCLDY    29  27  92 SW6       30.08S WCI  23
FRONT RANGE AP CLEAR     32  28  86 SW6       30.09S WCI  26
ERIE MUNI ARPT   N/A     19  18  95 SW5       30.10S WCI  12
BOULDER MUN AP CLEAR     30  25  80 CALM      30.09S
CENTENNIAL     PTCLDY    29  27  92 S7        30.08S FOG     WCI  22
BROOMFIELD     CLEAR     30  27  86 N10       30.08F WCI  21
FORT COLLINS   CLEAR     28  21  74 CALM      30.10F
LONGMONT       CLEAR     22  18  85 SE3       30.12S
$$

COZ041-046-047-076>085-087-088-190800-
...PIKES PEAK/PALMER DIVIDE AND SOUTHERN FOOTHILLS...

CITY           SKY/WX    TMP DP  RH WIND       PRES   REMARKS
COLO. SPRINGS  MOCLDY    27  21  78 N7        30.10F WCI  19
A. F. ACADEMY  MOCLDY    27  21  76 N5        30.09F WCI  22
ELLICOTT       NOT AVBL
FALCON         PTCLDY    22  21  96 CALM      30.09F
FORT CARSON    CLOUDY    30  23  76 N5        30.09F WCI  25
LIMON          CLEAR     15  12  88 CALM      30.10F
MONUMENT HILL  PTCLDY    23  21  93 SW7       30.07S WCI  15
TRINIDAD       CLOUDY    33  28  81 CALM      30.09S
$$

COZ042>045-048>051-090-091-190800-
...NORTHEAST COLORADO...

CITY           SKY/WX    TMP DP  RH WIND       PRES   REMARKS
GREELEY ARPT   CLEAR     19  12  73 NW6       30.09F WCI  11
AKRON          CLOUDY    30  19  63 S9        30.09S WCI  22
BURLINGTON     PTCLDY    22  18  85 SW8       30.11F WCI  12
WRAY           PTCLDY    18  16  93 W6        30.12S WCI  10
STERLING       MOCLDY    14  12  92 CALM      30.09F
HOLYOKE        NOT AVBL
FORT MORGAN    MOCLDY    19  15  88 W7        30.10S WCI   9
$$

COZ086-089-092>099-190800-
...SOUTHEAST COLORADO...

CITY           SKY/WX    TMP DP  RH WIND       PRES   REMARKS
PUEBLO         PTCLDY    24  20  84 N3        30.11F
LA JUNTA       CLOUDY    31  28  89 N3        30.12S
LAMAR          PTCLDY    22  20  92 CALM      30.12S
SPRINGFIELD      N/A     26  24  92 W6        30.10F WCI  19
$$



USA.gov is the U.S. government's official web portal to all federal, state and local government web resources and services.